Date String (YYYY-MM-DD hh:mm:ss) UTC,Instrument flags,Ambient pressure (hPa),Sample flow (lpm),Bypass flow (lpm),Sample temperature (°C),Ambient temperature (°C),ASC tube jacket temperature (°C),LED temperature (°C),Box temperature (°C),Sample RH (%),Span deviation,Mass concentration (μg/m³),Mass concentration (μg/m³),Mass concentration (μg/m³)
DateTimeUTC,F1_M11,P_M11,Q1_M11,Q2_M11,T1_M11,T2_M11,T3_M11,T4_M11,T5_M11,U1_M11,ZSPAN_M11,X0_M11,X2_M11,X1_M11
2021-10-29 13:00:00,,0829.9,5.01,0.00,25.6,24.6,00.0,34.6,27.4,12.6,0000.0,0007.54,0001.50,0000.92
2021-10-29 13:01:00,,0829.9,5.01,0.00,25.6,24.6,00.0,34.6,27.4,12.6,0000.0,0007.48,0001.43,0000.90
2021-10-29 13:02:00,,0829.9,5.00,0.00,25.6,24.6,00.0,34.6,27.4,12.6,0000.0,0007.39,0001.38,0000.87
2021-10-29 13:03:00,,0830.0,4.99,0.00,25.6,24.6,00.0,34.6,27.4,12.5,0000.0,0007.28,0001.32,0000.85
2021-10-29 13:04:00,,0830.0,5.00,0.00,25.6,24.6,00.0,34.6,27.4,12.3,0000.0,0007.11,0001.24,0000.82
2021-10-29 13:05:00,,0830.0,5.01,0.00,25.6,24.6,00.0,34.6,27.4,12.2,0000.0,0006.74,0001.18,0000.78
2021-10-29 13:06:00,,0830.0,4.98,0.00,25.6,24.6,00.0,34.6,27.4,12.2,0000.0,0005.62,0001.07,0000.74
2021-10-29 13:07:00,,0829.8,5.01,0.00,25.6,24.6,00.0,34.6,27.4,12.2,0000.0,0003.48,0001.02,0000.70
2021-10-29 13:08:00,,0830.0,4.99,0.00,25.6,24.6,00.0,34.6,27.4,12.3,0000.0,0003.17,0000.98,0000.67
2021-10-29 13:09:00,,0829.9,4.99,0.00,25.6,24.6,00.0,34.6,27.4,12.4,0000.0,0003.22,0000.97,0000.66
2021-10-29 13:10:00,,0829.9,5.02,0.00,25.6,24.6,00.0,34.6,27.4,12.4,0000.0,0003.18,0000.95,0000.65
2021-10-29 13:11:00,,0830.0,5.00,0.00,25.5,24.6,00.0,34.6,27.4,12.3,0000.0,0003.35,0000.95,0000.64
2021-10-29 13:12:00,,0829.9,4.99,0.00,25.5,24.6,00.0,34.6,27.4,12.2,0000.0,0003.27,0000.90,0000.61
2021-10-29 13:13:00,,0829.9,5.00,0.00,25.5,24.6,00.0,34.6,27.4,12.3,0000.0,0003.17,0000.87,0000.60
2021-10-29 13:14:00,,0830.0,5.00,0.00,25.5,24.6,00.0,34.6,27.4,12.4,0000.0,0003.07,0000.83,0000.60
2021-10-29 13:15:00,,0830.0,5.01,0.00,25.5,24.5,00.0,34.6,27.4,12.4,0000.0,0002.71,0000.82,0000.60
2021-10-29 13:16:00,,0830.1,5.00,0.00,25.5,24.5,00.0,34.6,27.3,12.5,0000.0,0002.31,0000.84,0000.62
2021-10-29 13:17:00,,0830.1,5.00,0.00,25.5,24.5,00.0,34.6,27.3,12.5,0000.0,0002.39,0000.87,0000.64
2021-10-29 13:18:00,,0830.1,4.99,0.00,25.5,24.5,00.0,34.5,27.3,12.5,0000.0,0002.38,0000.92,0000.66
2021-10-29 13:19:00,,0830.1,5.00,0.00,25.5,24.5,00.0,34.5,27.3,12.5,0000.0,0002.31,0000.93,0000.68
2021-10-29 13:20:00,,0830.1,5.00,0.00,25.5,24.5,00.0,34.5,27.3,12.6,0000.0,0001.81,0000.89,0000.68
2021-10-29 13:21:00,,0830.1,5.00,0.00,25.5,24.5,00.0,34.5,27.3,12.6,0000.0,0001.83,0000.90,0000.69
2021-10-29 13:22:00,,0830.1,5.01,0.00,25.5,24.5,00.0,34.5,27.3,12.5,0000.0,0001.67,0000.90,0000.70
2021-10-29 13:23:00,,0830.1,4.99,0.00,25.5,24.5,00.0,34.5,27.3,12.5,0000.0,0001.72,0000.92,0000.71
2021-10-29 13:24:00,,0830.1,5.01,0.00,25.5,24.5,00.0,34.5,27.3,12.4,0000.0,0001.75,0000.93,0000.71
2021-10-29 13:25:00,,0830.1,5.01,0.00,25.5,24.6,00.0,34.5,27.3,12.4,0000.0,0001.80,0000.94,0000.70
2021-10-29 13:26:00,,0830.1,5.01,0.00,25.5,24.6,00.0,34.5,27.3,12.4,0000.0,0001.85,0000.95,0000.70
2021-10-29 13:27:00,,0830.1,4.99,0.00,25.5,24.6,00.0,34.5,27.3,12.3,0000.0,0001.89,0000.95,0000.68
2021-10-29 13:28:00,,0830.1,5.00,0.00,25.5,24.6,00.0,34.5,27.3,12.3,0000.0,0001.88,0000.95,0000.67
2021-10-29 13:29:00,,0830.1,5.02,0.00,25.5,24.6,00.0,34.5,27.3,12.4,0000.0,0001.85,0000.94,0000.66
2021-10-29 13:30:00,,0830.1,5.00,0.00,25.5,24.6,00.0,34.5,27.3,12.5,0000.0,0001.59,0000.91,0000.66
2021-10-29 13:31:00,,0830.1,4.99,0.00,25.5,24.5,00.0,34.5,27.3,12.7,0000.0,0002.55,0000.95,0000.68
2021-10-29 13:32:00,,0830.1,5.01,0.00,25.5,24.6,00.0,34.5,27.3,12.6,0000.0,0002.86,0001.01,0000.70
2021-10-29 13:33:00,,0830.1,4.99,0.00,25.5,24.6,00.0,34.5,27.3,12.7,0000.0,0003.36,0001.05,0000.73
2021-10-29 13:34:00,,0830.1,5.00,0.00,25.5,24.6,00.0,34.5,27.3,13.0,0000.0,0003.70,0001.19,0000.83
2021-10-29 13:35:00,,0830.1,5.00,0.00,25.5,24.5,00.0,34.5,27.3,13.0,0000.0,0003.96,0001.37,0000.96
2021-10-29 13:36:00,,0830.1,4.99,0.00,25.5,24.5,00.0,34.5,27.3,12.9,0000.0,0004.23,0001.55,0001.07
2021-10-29 13:37:00,,0830.0,4.99,0.00,25.5,24.6,00.0,34.5,27.3,12.9,0000.0,0004.65,0001.73,0001.19
2021-10-29 13:38:00,,0830.1,5.01,0.00,25.5,24.6,00.0,34.5,27.3,12.9,0000.0,0005.10,0001.91,0001.33
2021-10-29 13:39:00,,0830.1,5.00,0.00,25.5,24.6,00.0,34.5,27.3,12.9,0000.0,0005.46,0002.07,0001.45
2021-10-29 13:40:00,,0830.1,5.00,0.00,25.5,24.6,00.0,34.5,27.4,12.9,0000.0,0007.07,0002.23,0001.58
2021-10-29 13:41:00,,0830.1,4.99,0.00,25.5,24.6,00.0,34.5,27.4,12.9,0000.0,0008.11,0002.38,0001.68
2021-10-29 13:42:00,,0830.1,5.01,0.00,25.5,24.6,00.0,34.5,27.4,12.9,0000.0,0007.91,0002.55,0001.78
2021-10-29 13:43:00,,0830.1,5.01,0.00,25.5,24.6,00.0,34.5,27.4,13.0,0000.0,0007.77,0002.72,0001.92
2021-10-29 13:44:00,,0830.1,4.99,0.00,25.5,24.6,00.0,34.5,27.4,13.1,0000.0,0008.14,0002.96,0002.09
2021-10-29 13:45:00,,0830.3,5.00,0.00,25.5,24.6,00.0,34.5,27.4,13.0,0000.0,0008.10,0003.02,0002.16
2021-10-29 13:46:00,,0830.1,5.01,0.00,25.5,24.6,00.0,34.6,27.4,13.2,0000.0,0008.83,0003.07,0002.20
2021-10-29 13:47:00,,0830.1,4.99,0.00,25.5,24.6,00.0,34.6,27.4,13.3,0000.0,0008.86,0003.11,0002.27
2021-10-29 13:48:00,,0830.2,4.99,0.00,25.5,24.6,00.0,34.6,27.4,13.3,0000.0,0008.86,0003.15,0002.34
2021-10-29 13:49:00,,0830.1,5.01,0.00,25.5,24.6,00.0,34.6,27.4,13.3,0000.0,0008.75,0003.14,0002.38
2021-10-29 13:50:00,,0830.1,5.00,0.00,25.6,24.6,00.0,34.6,27.4,13.3,0000.0,0008.73,0003.17,0002.44
2021-10-29 13:51:00,,0830.2,4.99,0.00,25.6,24.6,00.0,34.6,27.4,13.2,0000.0,0008.33,0003.21,0002.51
2021-10-29 13:52:00,,0830.2,5.00,0.00,25.6,24.6,00.0,34.6,27.4,13.2,0000.0,0007.52,0003.26,0002.58
2021-10-29 13:53:00,,0830.2,5.00,0.00,25.6,24.6,00.0,34.6,27.4,13.2,0000.0,0007.37,0003.28,0002.65
2021-10-29 13:54:00,,0830.2,5.00,0.00,25.6,24.7,00.0,34.6,27.4,13.2,0000.0,0007.40,0003.30,0002.71
2021-10-29 13:55:00,,0830.3,4.99,0.00,25.6,24.7,00.0,34.6,27.4,13.2,0000.0,0007.04,0003.31,0002.76
2021-10-29 13:56:00,,0830.3,4.99,0.00,25.6,24.7,00.0,34.6,27.4,13.2,0000.0,0006.91,0003.32,0002.79
2021-10-29 13:57:00,,0830.3,5.00,0.00,25.6,24.7,00.0,34.6,27.4,13.2,0000.0,0006.57,0003.37,0002.85
2021-10-29 13:58:00,,0830.3,5.00,0.00,25.6,24.7,00.0,34.6,27.4,13.3,0000.0,0006.08,0003.40,0002.90
2021-10-29 13:59:00,,0830.2,5.01,0.00,25.6,24.7,00.0,34.6,27.5,13.3,0000.0,0006.82,0003.43,0002.97
